Powrót do katalogu

DGS 2-02

AktywnyNaukaSSO
NORAD 65261·PAYLOAD·🇨🇳 China
Ta nazwa satelity nie została jeszcze potwierdzona przez oficjalne źródła.

Wystrzelony Aug 19, 2025 z Jiuquan Satellite Launch Center

Loading…

Następne Przeloty (najbliższe 24 godziny)

TLE

ŚwieżeSource: Space-Track

Epoka: Sep 14, 2026, 14:01 UTC

1 65261U 25180C   26257.58439190  .00003778  00000-0  19967-3 0  9997
2 65261  97.5356  23.9411 0013917  18.3629 341.8103 15.16019006 59202

Śledź DGS 2-02 w czasie rzeczywistym z AllMySat

Download on the App Store